RYS7704 LTBS-EPWR

Flight info

Callsign RYS7704
Flight time N/A
Altitude 34000
Route KEKIK DCT YOYYO UN618 IMR UN128 PEREN DCT EVIVI L863 OKANA DCT PARAK DCT BALAP DCT KREMI DCT TEKLA DCT KOPAT DCT BILNA DCT REGLI L617 EPOPA
Aircraft B738/M-SDE2E3FGHIRWXY/LB1

Departure

Time 2026-05-08 17:38
Airport Dalaman International Airport (LTBS)

Arrival

Time N/A
Airport Copernicus Wrocław Airport (EPWR)
Time Latitude Longitude Altitude Speed Heading
2026-05-08 17:14 36.72272 28.79055 38 ft 0 kts 285°
2026-05-08 17:28 36.72271 28.79059 11 ft 3 kts 285°
2026-05-08 17:28 36.72264 28.79086 11 ft 3 kts 292°
2026-05-08 17:28 36.72254 28.79111 12 ft 3 kts 308°
2026-05-08 17:29 36.72239 28.79128 12 ft 3 kts 351°
2026-05-08 17:29 36.72229 28.79129 13 ft 0 kts 15°
2026-05-08 17:32 36.72235 28.79131 13 ft 1 kts 16°
2026-05-08 17:33 36.72245 28.79134 11 ft 2 kts 15°
2026-05-08 17:33 36.72266 28.79142 11 ft 4 kts 15°
2026-05-08 17:33 36.72305 28.79155 11 ft 7 kts 15°
2026-05-08 17:33 36.72359 28.79175 11 ft 9 kts 19°
2026-05-08 17:34 36.72418 28.79194 11 ft 9 kts 14°
2026-05-08 17:34 36.72477 28.79214 11 ft 9 kts 16°
2026-05-08 17:34 36.72546 28.79238 11 ft 12 kts 15°
2026-05-08 17:34 36.72626 28.79265 11 ft 12 kts 15°
2026-05-08 17:35 36.72686 28.79323 11 ft 12 kts 79°
2026-05-08 17:35 36.72673 28.79419 13 ft 11 kts 105°
2026-05-08 17:35 36.72654 28.79503 11 ft 9 kts 106°
2026-05-08 17:35 36.72644 28.79548 12 ft 3 kts 106°
2026-05-08 17:36 36.72638 28.79574 11 ft 3 kts 105°
2026-05-08 17:36 36.72633 28.79598 11 ft 3 kts 105°
2026-05-08 17:36 36.72627 28.79623 12 ft 4 kts 105°
2026-05-08 17:36 36.72618 28.79661 11 ft 5 kts 107°
2026-05-08 17:37 36.72594 28.79686 11 ft 6 kts 191°
2026-05-08 17:37 36.72583 28.79682 11 ft 0 kts 194°
2026-05-08 17:37 36.72447 28.79637 11 ft 50 kts 195°
2026-05-08 17:37 36.71912 28.79455 11 ft 108 kts 195°
2026-05-08 17:38 36.71024 28.79152 13 ft 155 kts 194°
2026-05-08 17:38 36.69912 28.78769 334 ft 169 kts 195°
2026-05-08 17:38 36.68766 28.78389 967 ft 175 kts 195°
2026-05-08 17:38 36.67537 28.78025 1537 ft 186 kts 194°
2026-05-08 17:39 36.66230 28.77657 2042 ft 202 kts 193°
2026-05-08 17:39 36.64867 28.77259 2564 ft 205 kts 197°
2026-05-08 17:39 36.63505 28.76636 2988 ft 215 kts 212°
2026-05-08 17:39 36.62490 28.75307 3385 ft 216 kts 250°
2026-05-08 17:40 36.62284 28.73437 3629 ft 226 kts 283°
2026-05-08 17:40 36.62763 28.71570 4124 ft 230 kts 290°
2026-05-08 17:40 36.63301 28.69607 4443 ft 250 kts 288°
2026-05-08 17:40 36.63837 28.67474 4889 ft 263 kts 288°
2026-05-08 17:41 36.64361 28.65282 5559 ft 268 kts 287°
2026-05-08 17:41 36.64920 28.63048 6198 ft 271 kts 288°
2026-05-08 17:41 36.65504 28.60816 6889 ft 273 kts 294°
2026-05-08 17:41 36.66696 28.59039 7600 ft 274 kts 321°
2026-05-08 17:42 36.68223 28.57589 8254 ft 278 kts 321°
2026-05-08 17:42 36.69778 28.56123 8883 ft 282 kts 321°
2026-05-08 17:42 36.71342 28.54646 9611 ft 283 kts 320°
2026-05-08 17:42 36.72919 28.53153 10304 ft 287 kts 320°
2026-05-08 17:43 36.74556 28.51592 10497 ft 307 kts 320°
2026-05-08 17:43 36.76306 28.49918 10663 ft 327 kts 320°
2026-05-08 17:43 36.78151 28.48148 10937 ft 341 kts 320°
2026-05-08 17:43 36.80050 28.46325 11478 ft 346 kts 320°
2026-05-08 17:44 36.81958 28.44492 12132 ft 347 kts 320°
2026-05-08 17:44 36.83851 28.42671 12766 ft 350 kts 320°
2026-05-08 17:44 36.85786 28.40806 13396 ft 353 kts 320°
2026-05-08 17:44 36.87739 28.38921 14036 ft 356 kts 320°
2026-05-08 17:45 36.89706 28.37023 14669 ft 357 kts 320°
2026-05-08 17:45 36.91663 28.35135 15481 ft 354 kts 319°
2026-05-08 17:45 36.93614 28.33247 16205 ft 355 kts 319°
2026-05-08 17:45 36.95567 28.31354 16821 ft 358 kts 319°
2026-05-08 17:46 36.97547 28.29431 17411 ft 360 kts 319°
2026-05-08 17:46 36.99533 28.27504 18048 ft 362 kts 319°
2026-05-08 17:46 37.01530 28.25565 18662 ft 364 kts 319°
2026-05-08 17:46 37.03534 28.23619 19190 ft 365 kts 319°
2026-05-08 17:47 37.05544 28.21665 19704 ft 368 kts 319°
2026-05-08 17:47 37.07545 28.19719 20224 ft 370 kts 319°
2026-05-08 17:47 37.09587 28.17731 20688 ft 374 kts 319°
2026-05-08 17:47 37.10974 28.16381 21036 ft 375 kts 319°
2026-05-08 17:48 37.13719 28.13705 21632 ft 379 kts 319°
2026-05-08 17:48 37.15801 28.11675 22159 ft 380 kts 319°
2026-05-08 17:48 37.17889 28.09636 22654 ft 381 kts 318°
2026-05-08 17:48 37.19988 28.07586 23086 ft 384 kts 318°
2026-05-08 17:49 37.22106 28.05514 23519 ft 387 kts 318°
2026-05-08 17:49 37.24240 28.03428 23925 ft 390 kts 318°
2026-05-08 17:49 37.26349 28.01365 24350 ft 391 kts 318°
2026-05-08 17:49 37.28496 27.99261 24727 ft 392 kts 317°
2026-05-08 17:50 37.30652 27.97146 25073 ft 394 kts 317°
2026-05-08 17:50 37.32820 27.95018 25394 ft 397 kts 317°
2026-05-08 17:50 37.35005 27.92886 25741 ft 398 kts 317°
2026-05-08 17:50 37.37193 27.90738 26120 ft 400 kts 317°
2026-05-08 17:51 37.39389 27.88574 26475 ft 402 kts 317°
2026-05-08 17:51 37.41597 27.86397 26796 ft 404 kts 317°
2026-05-08 17:51 37.43815 27.84209 27117 ft 406 kts 317°
2026-05-08 17:51 37.46038 27.82017 27407 ft 408 kts 317°
2026-05-08 17:52 37.48246 27.79838 27663 ft 410 kts 316°
2026-05-08 17:52 37.50494 27.77617 27900 ft 412 kts 317°
2026-05-08 17:52 37.55003 27.73164 28591 ft 414 kts 316°
2026-05-08 17:53 37.57274 27.70915 28830 ft 417 kts 316°
2026-05-08 17:53 37.59556 27.68654 29171 ft 417 kts 316°
2026-05-08 17:53 37.61820 27.66415 29815 ft 411 kts 316°
2026-05-08 17:53 37.64063 27.64194 30245 ft 410 kts 315°
2026-05-08 17:54 37.66308 27.61964 30514 ft 411 kts 316°
2026-05-08 17:54 37.68550 27.59737 30887 ft 409 kts 315°
2026-05-08 17:54 37.70775 27.57526 31297 ft 406 kts 315°
2026-05-08 17:54 37.72957 27.55357 31675 ft 404 kts 315°
2026-05-08 17:55 37.75166 27.53157 31934 ft 405 kts 315°
2026-05-08 17:55 37.77375 27.50953 32190 ft 406 kts 315°
2026-05-08 17:55 37.79593 27.48739 32476 ft 406 kts 315°
2026-05-08 17:55 37.81797 27.46540 32878 ft 402 kts 315°
2026-05-08 17:56 37.84000 27.44341 33140 ft 403 kts 315°
2026-05-08 17:56 37.86203 27.42137 33357 ft 405 kts 315°
2026-05-08 17:56 37.88413 27.39924 33567 ft 406 kts 315°
2026-05-08 17:56 37.90626 27.37707 33864 ft 405 kts 315°
2026-05-08 17:57 37.92832 27.35498 34143 ft 405 kts 315°
2026-05-08 17:57 37.97277 27.31036 34122 ft 409 kts 315°
2026-05-08 17:58 38.01677 27.26620 34125 ft 403 kts 315°
2026-05-08 17:58 38.06059 27.22212 34127 ft 402 kts 315°
2026-05-08 17:59 38.10428 27.17806 34122 ft 401 kts 315°
2026-05-08 17:59 38.14793 27.13398 34128 ft 401 kts 315°
2026-05-08 18:00 38.19158 27.08984 34133 ft 401 kts 315°
2026-05-08 18:00 38.25703 27.02349 34114 ft 406 kts 315°
2026-05-08 18:01 38.30115 26.97871 34137 ft 406 kts 315°
2026-05-08 18:01 38.34537 26.93375 34128 ft 407 kts 315°
2026-05-08 18:02 38.38219 26.89625 34121 ft 408 kts 315°
2026-05-08 18:02 38.43405 26.84336 34116 ft 408 kts 315°
2026-05-08 18:03 38.47806 26.79841 34111 ft 408 kts 315°
2026-05-08 18:03 38.52232 26.75310 34109 ft 407 kts 315°
2026-05-08 18:04 38.56650 26.70782 34105 ft 407 kts 315°
2026-05-08 18:04 38.61058 26.66256 34127 ft 406 kts 315°
2026-05-08 18:05 38.65457 26.61731 34110 ft 406 kts 315°
2026-05-08 18:05 38.69826 26.57230 34100 ft 405 kts 315°
2026-05-08 18:06 38.74242 26.52673 34112 ft 405 kts 315°
2026-05-08 18:06 38.78593 26.48176 34098 ft 404 kts 315°
2026-05-08 18:07 38.82967 26.43649 34099 ft 404 kts 315°
2026-05-08 18:07 38.87308 26.39092 34092 ft 403 kts 314°
2026-05-08 18:08 38.91626 26.34510 34098 ft 403 kts 314°
2026-05-08 18:08 38.95942 26.29925 34102 ft 402 kts 314°
2026-05-08 18:09 39.00225 26.25374 34114 ft 403 kts 314°
2026-05-08 18:09 39.04541 26.20783 34097 ft 403 kts 314°
2026-05-08 18:10 39.08862 26.16178 34094 ft 403 kts 314°
2026-05-08 18:10 39.13182 26.11567 34086 ft 403 kts 314°
2026-05-08 18:11 39.17501 26.06949 34091 ft 404 kts 314°
2026-05-08 18:11 39.21828 26.02315 34091 ft 405 kts 314°
2026-05-08 18:12 39.26134 25.97697 34079 ft 405 kts 314°
2026-05-08 18:12 39.30458 25.93036 34097 ft 405 kts 313°
2026-05-08 18:13 39.34731 25.88288 34089 ft 405 kts 313°
2026-05-08 18:13 39.38990 25.83515 34081 ft 405 kts 313°
2026-05-08 18:14 39.43254 25.78740 34081 ft 405 kts 313°
2026-05-08 18:14 39.47480 25.74007 34083 ft 406 kts 313°
2026-05-08 18:15 39.51747 25.69226 34081 ft 406 kts 313°
2026-05-08 18:15 39.56018 25.64430 34078 ft 406 kts 313°
2026-05-08 18:16 39.60291 25.59624 34088 ft 407 kts 313°
2026-05-08 18:16 39.64568 25.54806 34080 ft 407 kts 313°
2026-05-08 18:17 39.68845 25.49979 34077 ft 408 kts 313°
2026-05-08 18:17 39.73097 25.45172 34072 ft 408 kts 313°
2026-05-08 18:18 39.77381 25.40321 34083 ft 409 kts 313°
2026-05-08 18:18 39.81666 25.35460 34079 ft 409 kts 313°
2026-05-08 18:19 39.85963 25.30577 34051 ft 411 kts 313°
2026-05-08 18:19 39.90273 25.25671 34049 ft 412 kts 313°
2026-05-08 18:20 39.94002 25.20207 34057 ft 403 kts 300°
2026-05-08 18:20 39.97218 25.14205 34052 ft 404 kts 300°
2026-05-08 18:21 40.00444 25.08183 34055 ft 405 kts 300°
2026-05-08 18:21 40.03689 25.02161 34057 ft 406 kts 300°
2026-05-08 18:22 40.06949 24.96121 34071 ft 408 kts 300°
2026-05-08 18:22 40.10196 24.90099 34067 ft 408 kts 300°
2026-05-08 18:23 40.13462 24.84031 34072 ft 408 kts 300°
2026-05-08 18:23 40.16727 24.77951 34076 ft 408 kts 300°
2026-05-08 18:24 40.19976 24.71889 34068 ft 408 kts 300°
2026-05-08 18:24 40.23227 24.65811 34068 ft 407 kts 300°
2026-05-08 18:25 40.26465 24.59747 34067 ft 406 kts 300°
2026-05-08 18:25 40.29676 24.53721 34068 ft 406 kts 300°
2026-05-08 18:26 40.32905 24.47651 34069 ft 405 kts 300°
2026-05-08 18:26 40.36124 24.41585 34070 ft 406 kts 300°
2026-05-08 18:27 40.38802 24.36528 34087 ft 409 kts 300°
2026-05-08 18:27 40.42634 24.29276 34076 ft 418 kts 300°
2026-05-08 18:28 40.45920 24.23052 34065 ft 419 kts 300°
2026-05-08 18:28 40.49234 24.16761 34064 ft 419 kts 300°
2026-05-08 18:29 40.52539 24.10476 34063 ft 418 kts 300°
2026-05-08 18:29 40.55840 24.04182 34066 ft 418 kts 300°
2026-05-08 18:30 40.59478 23.98199 34067 ft 425 kts 313°
2026-05-08 18:30 40.64329 23.93740 34069 ft 435 kts 328°
2026-05-08 18:31 40.69800 23.90322 34080 ft 436 kts 330°
2026-05-08 18:31 40.75314 23.86945 34079 ft 437 kts 330°
2026-05-08 18:32 40.80820 23.83514 34077 ft 438 kts 330°
2026-05-08 18:32 40.86327 23.80042 34073 ft 439 kts 330°
2026-05-08 18:33 40.91840 23.76551 34087 ft 440 kts 331°
2026-05-08 18:33 40.97370 23.73043 34082 ft 442 kts 331°
2026-05-08 18:34 41.02878 23.69545 34083 ft 442 kts 331°
2026-05-08 18:34 41.08431 23.66012 34078 ft 443 kts 331°
2026-05-08 18:35 41.13088 23.63044 34079 ft 443 kts 331°
2026-05-08 18:35 41.19544 23.58921 34072 ft 444 kts 332°
2026-05-08 18:36 41.24169 23.55961 34078 ft 443 kts 332°
2026-05-08 18:36 41.29725 23.52399 34076 ft 443 kts 332°
2026-05-08 18:37 41.35273 23.48836 34077 ft 443 kts 332°
2026-05-08 18:37 41.40829 23.45261 34069 ft 443 kts 332°
2026-05-08 18:38 41.46367 23.41665 34088 ft 443 kts 332°
2026-05-08 18:38 41.51865 23.38075 34075 ft 443 kts 332°
2026-05-08 18:39 41.57300 23.34522 34095 ft 417 kts 332°
2026-05-08 18:39 41.59847 23.32858 34082 ft 400 kts 332°
2026-05-08 18:39 41.62329 23.31233 34091 ft 395 kts 332°
2026-05-08 18:40 41.67181 23.28050 34063 ft 381 kts 332°
2026-05-08 18:40 41.71831 23.24995 34053 ft 368 kts 332°
2026-05-08 18:41 41.76359 23.22016 34050 ft 358 kts 332°
2026-05-08 18:41 41.80763 23.19114 34048 ft 348 kts 332°
2026-05-08 18:42 41.85055 23.16282 34051 ft 340 kts 332°
2026-05-08 18:42 41.89248 23.13510 34045 ft 332 kts 332°
2026-05-08 18:43 41.93328 23.10810 34046 ft 326 kts 333°
2026-05-08 18:43 41.97355 23.08141 34032 ft 320 kts 333°
2026-05-08 18:44 42.01313 23.05512 34026 ft 315 kts 333°
2026-05-08 18:44 42.05242 23.02900 34016 ft 315 kts 333°
2026-05-08 18:45 42.07255 23.01566 33484 ft 335 kts 333°
2026-05-08 18:45 42.09445 23.00117 32614 ft 367 kts 333°
2026-05-08 18:45 42.11797 22.98539 32290 ft 383 kts 333°
2026-05-08 18:45 42.14164 22.96934 32616 ft 381 kts 333°
2026-05-08 18:46 42.18957 22.93741 32765 ft 394 kts 333°
2026-05-08 18:46 42.23959 22.90409 32922 ft 407 kts 333°
2026-05-08 18:47 42.29112 22.86955 33034 ft 421 kts 332°
2026-05-08 18:47 42.34444 22.83370 33171 ft 435 kts 332°
2026-05-08 18:48 42.39902 22.79693 33331 ft 446 kts 332°
2026-05-08 18:48 42.42689 22.77814 33557 ft 448 kts 332°
2026-05-08 18:48 42.45466 22.75939 34013 ft 444 kts 332°
2026-05-08 18:49 42.51044 22.72167 34034 ft 449 kts 332°
2026-05-08 18:49 42.56598 22.68405 34020 ft 442 kts 332°
2026-05-08 18:50 42.62092 22.64674 34045 ft 442 kts 332°
2026-05-08 18:50 42.67592 22.60929 34043 ft 443 kts 332°
2026-05-08 18:51 42.73068 22.57193 34041 ft 444 kts 332°
2026-05-08 18:51 42.78592 22.53417 34041 ft 445 kts 332°
2026-05-08 18:52 42.84126 22.49627 34056 ft 445 kts 331°
2026-05-08 18:52 42.89469 22.45985 34034 ft 445 kts 331°
2026-05-08 18:53 42.95004 22.42227 34027 ft 444 kts 331°
2026-05-08 18:53 43.00500 22.38487 34029 ft 443 kts 331°
2026-05-08 18:54 43.06006 22.34728 34042 ft 442 kts 331°
2026-05-08 18:54 43.11506 22.30965 34028 ft 441 kts 331°
2026-05-08 18:55 43.19680 22.25356 34032 ft 439 kts 332°
2026-05-08 18:56 43.25138 22.21602 34019 ft 438 kts 331°
2026-05-08 18:56 43.30580 22.17852 34022 ft 438 kts 331°
2026-05-08 18:57 43.36018 22.14096 34029 ft 438 kts 331°
2026-05-08 18:57 43.41462 22.10329 34017 ft 438 kts 332°
2026-05-08 18:58 43.46863 22.06583 34025 ft 438 kts 332°
2026-05-08 18:58 43.52310 22.02799 34023 ft 439 kts 332°
2026-05-08 18:59 43.57761 21.99004 34020 ft 439 kts 332°
2026-05-08 18:59 43.63214 21.95200 34006 ft 439 kts 331°
2026-05-08 19:00 43.68630 21.91414 34022 ft 440 kts 331°
2026-05-08 19:00 43.74098 21.87583 34023 ft 441 kts 331°
2026-05-08 19:01 43.79583 21.83733 34010 ft 443 kts 331°
2026-05-08 19:01 43.85074 21.79871 34022 ft 443 kts 331°
2026-05-08 19:02 43.90536 21.76022 34005 ft 443 kts 331°
2026-05-08 19:02 43.96034 21.72139 34007 ft 443 kts 331°
2026-05-08 19:03 44.01530 21.68248 34003 ft 443 kts 331°
2026-05-08 19:03 44.07018 21.64355 33999 ft 443 kts 331°
2026-05-08 19:04 44.12511 21.60452 34015 ft 443 kts 330°
2026-05-08 19:04 44.17966 21.56566 33993 ft 443 kts 330°
2026-05-08 19:05 44.23452 21.52651 33996 ft 443 kts 330°
2026-05-08 19:05 44.28935 21.48729 33986 ft 443 kts 330°
2026-05-08 19:06 44.34409 21.44806 33993 ft 442 kts 330°
2026-05-08 19:06 44.39869 21.40884 34000 ft 441 kts 330°
2026-05-08 19:07 44.45289 21.36983 33985 ft 440 kts 330°
2026-05-08 19:07 44.50730 21.33058 33982 ft 439 kts 330°
2026-05-08 19:08 44.56152 21.29139 33989 ft 438 kts 329°
2026-05-08 19:08 44.61560 21.25222 33979 ft 437 kts 329°
2026-05-08 19:09 44.66948 21.21311 33986 ft 436 kts 329°
2026-05-08 19:09 44.72297 21.17419 33991 ft 436 kts 329°
2026-05-08 19:10 44.77683 21.13493 33983 ft 436 kts 329°
2026-05-08 19:10 44.83069 21.09559 33991 ft 436 kts 329°
2026-05-08 19:11 44.88459 21.05612 33989 ft 437 kts 329°
2026-05-08 19:11 44.93821 21.01678 33987 ft 438 kts 329°
2026-05-08 19:12 44.99227 20.97704 33991 ft 439 kts 329°
2026-05-08 19:12 45.04650 20.93709 33991 ft 440 kts 328°
2026-05-08 19:13 45.10086 20.89695 33995 ft 441 kts 328°
2026-05-08 19:13 45.15531 20.85666 33996 ft 442 kts 328°
2026-05-08 19:14 45.20951 20.81648 33992 ft 443 kts 328°
2026-05-08 19:14 45.26418 20.77584 34012 ft 444 kts 328°
2026-05-08 19:15 45.31894 20.73506 34001 ft 445 kts 328°
2026-05-08 19:15 45.37376 20.69414 33999 ft 445 kts 328°
2026-05-08 19:16 45.42817 20.65345 33999 ft 445 kts 328°
2026-05-08 19:16 45.48287 20.61244 34004 ft 445 kts 328°
2026-05-08 19:17 45.53756 20.57135 34007 ft 444 kts 327°
2026-05-08 19:17 45.59217 20.53022 33990 ft 443 kts 327°
2026-05-08 19:18 45.64653 20.48920 34002 ft 442 kts 327°
2026-05-08 19:18 45.70076 20.44819 34007 ft 440 kts 327°
2026-05-08 19:19 45.75449 20.40745 34026 ft 439 kts 327°
2026-05-08 19:19 45.80846 20.36646 34002 ft 438 kts 327°
2026-05-08 19:20 45.86221 20.32553 34003 ft 437 kts 327°
2026-05-08 19:20 45.91587 20.28458 34001 ft 436 kts 327°
2026-05-08 19:21 45.96903 20.24392 34013 ft 435 kts 326°
2026-05-08 19:21 46.02244 20.20298 34024 ft 435 kts 326°
2026-05-08 19:22 46.07581 20.16197 34019 ft 435 kts 326°
2026-05-08 19:22 46.12909 20.12095 34012 ft 434 kts 326°
2026-05-08 19:23 46.18390 20.08379 34003 ft 441 kts 337°
2026-05-08 19:23 46.24241 20.05877 34024 ft 442 kts 339°
2026-05-08 19:24 46.30158 20.03448 34019 ft 442 kts 339°
2026-05-08 19:24 46.36062 20.00966 34015 ft 441 kts 338°
2026-05-08 19:25 46.41943 19.98446 34019 ft 441 kts 338°
2026-05-08 19:25 46.47786 19.95922 34025 ft 441 kts 338°
2026-05-08 19:26 46.53660 19.93378 34018 ft 441 kts 338°
2026-05-08 19:26 46.59545 19.90824 34019 ft 441 kts 338°
2026-05-08 19:27 46.65425 19.88268 34022 ft 441 kts 338°
2026-05-08 19:27 46.71305 19.85707 34051 ft 441 kts 337°
2026-05-08 19:28 46.77144 19.83157 34030 ft 441 kts 337°
2026-05-08 19:28 46.83027 19.80583 34020 ft 441 kts 337°
2026-05-08 19:29 46.88894 19.78010 34019 ft 440 kts 337°
2026-05-08 19:29 46.94740 19.75440 34032 ft 438 kts 337°
2026-05-08 19:30 47.00570 19.72872 34027 ft 437 kts 337°
2026-05-08 19:30 47.06351 19.70317 34013 ft 437 kts 337°
2026-05-08 19:31 47.12164 19.67744 34028 ft 436 kts 337°
2026-05-08 19:31 47.17963 19.65171 34016 ft 435 kts 337°
2026-05-08 19:32 47.23751 19.62597 34022 ft 434 kts 336°
2026-05-08 19:32 47.29494 19.60037 34024 ft 434 kts 336°
2026-05-08 19:33 47.35272 19.57456 34018 ft 434 kts 336°
2026-05-08 19:33 47.41054 19.54867 34042 ft 434 kts 336°
2026-05-08 19:34 47.46849 19.52264 34049 ft 437 kts 336°
2026-05-08 19:34 47.52675 19.49643 34021 ft 438 kts 336°
2026-05-08 19:35 47.58495 19.47021 34017 ft 437 kts 336°
2026-05-08 19:35 47.64261 19.44417 34041 ft 436 kts 336°